This demonstration page uses our WeatherBlox Daily Observations layout. Learn more.

38.89511, -77.03637

Hourly Observations for March 25, 2015

Temp ( °F °C ) Dew Point ( °F °C ) Humidity (%) Winds ( mph kmh ) Pressure ( in mb ) Visibility ( mi km ) Precip ( " mm )
12:52 am 00:52 Mostly Cloudy 37 3 21 -6 52 52 E 5 7 30.39 1029 10 16.09344 0 0
1:52 am 01:52 Mostly Cloudy 37 3 21 -6 52 52 ESE 5 7 30.39 1029 10 16.09344 0 0
2:52 am 02:52 Partly Cloudy 37 3 23 -5 56 56 Calm 30.39 1029 10 16.09344 0 0
3:52 am 03:52 Partly Cloudy 36 2 25 -4 65 65 Calm 30.42 1030 10 16.09344 0 0
4:52 am 04:52 Partly Cloudy 36 2 25 -4 65 65 Calm 30.39 1029 10 16.09344 0 0
5:52 am 05:52 Partly Cloudy 36 2 27 -3 70 70 Calm 30.39 1029 10 16.09344 0 0
6:52 am 06:52 Cloudy 37 3 27 -3 65 65 ESE 3 6 30.39 1029 10 16.09344 0 0
7:52 am 07:52 Cloudy 37 3 27 -3 65 65 Calm 30.39 1029 10 16.09344 0 0
10:52 am 10:52 Cloudy 41 5 27 -3 57 57 ESE 7 11 30.39 1029 10 16.09344 0.001 0.001
11:52 am 11:52 Cloudy 43 6 27 -3 53 53 N 3 6 30.39 1029 10 16.09344 0.001 0.001
12:52 pm 12:52 Cloudy 45 7 27 -3 49 49 S 6 9 30.36 1028 10 16.09344 0 0
1:52 pm 13:52 Cloudy 48 9 28 -2 46 46 SE 3 6 30.33 1027 10 16.09344 0 0
2:52 pm 14:52 Mostly Cloudy 52 11 28 -2 41 41 S 7 11 30.27 1025 10 16.09344 0 0
3:52 pm 15:52 Cloudy 54 12 32 0 44 44 S 9 15 30.24 1024 10 16.09344 0 0
4:52 pm 16:52 Cloudy 54 12 36 2 51 51 S 8 13 30.21 1023 10 16.09344 0 0
5:52 pm 17:52 Cloudy 52 11 39 4 62 62 S 10 17 30.21 1023 10 16.09344 0.001 0.001
6:52 pm 18:52 Cloudy 52 11 39 4 62 62 S 6 9 30.21 1023 10 16.09344 0 0
7:52 pm 19:52 Cloudy 52 11 39 4 62 62 S 5 7 30.18 1022 10 16.09344 0 0
8:52 pm 20:52 Cloudy 50 10 37 3 62 62 S 7 11 30.18 1022 10 16.09344 0 0
9:52 pm 21:52 Mostly Cloudy 52 11 37 3 58 58 S 5 7 30.18 1022 10 16.09344 0 0
10:52 pm 22:52 Cloudy 50 10 39 4 67 67 S 5 7 30.18 1022 10 16.09344 0 0
11:52 pm 23:52 Mostly Cloudy 50 10 37 3 62 62 S 8 13 30.15 1021 10 16.09344 0 0

Powered by AerisWeather